Temp
6 5 5 4 4 4 4 4 4 4 4 4 5 4 4 4 4 4 4 4 4 4 4 4 4 3 3 3 3 3 3 2
5 5 4 4 4 5 5 5 5 5 4 4 4 4 4 4 4 3 3 4 4 4 4 4 4 4 4 3 3 2 3 3
5 5 5 5 5 5 5 5 5 4 4 4 4 4 3 3 3 3 3 3 3 3 4 4 4 3 3 3 3 3 2 2
5 5 5 4 4 4 4 4 4 4 4 4 3 3 3 3 3 3 3 3 3 3 3 3 3 3 3 3 3 3 2 2
5 5 5 5 5 5 5 4 4 4 4 4 3 3 3 3 2 2 2 2 2 2 3 3 3 3 3 2 2 2 3 3
5 4 4 5 5 5 5 4 4 4 3 3 3 3 3 3 2 2 2 2 2 2 2 2 2 2 2 2 2 2 2 2
4 4 4 4 4 4 4 4 4 3 3 3 3 2 2 2 2 2 2 2 2 1 1 1 1 1 1 2 2 2 2 1
4 3 3 4 4 4 4 4 3 3 3 3 2 2 2 2 2 1 1 1 1 0 0 0 0 1 1 1 1 1 1 1
4 3 3 3 4 4 4 4 3 3 2 2 2 2 2 2 1 1 1 0 0 0 0 0 -0 -0 -0 -0 -0 -0 0 1
3 3 3 3 3 3 3 3 2 2 2 2 1 1 1 1 1 1 0 -0 -0 -0 -1 -1 -1 -1 -1 -1 -1 -1 -1 -1
3 3 3 3 2 2 2 2 2 2 2 1 1 1 0 -0 -0 -0 -0 -0 -0 -0 -1 -1 -1 -1 -2 -2 -2 -2 -2 -2
3 3 2 2 2 2 2 2 2 1 1 1 1 1 -0 -1 -1 -1 -1 -1 -1 -1 -1 -1 -2 -2 -2 -2 -3 -3 -3 -3
3 3 3 2 2 2 1 1 1 1 1 0 0 0 -0 -1 -1 -1 -2 -2 -3 -3 -3 -3 -3 -3 -3 -3 -3 -3 -3 -3
3 2 2 2 1 1 0 0 0 0 -0 -0 -1 -1 -1 -1 -1 -1 -2 -3 -3 -3 -3 -3 -3 -3 -3 -3 -3 -3 -3 -3
2 1 1 1 0 -0 -1 -1 -1 -1 -1 -1 -1 -1 -2 -2 -2 -2 -2 -2 -3 -3 -4 -4 -4 -4 -3 -4 -3 -3 -3 -3
1 1 0 0 -0 -0 -1 -1 -1 -1 -2 -2 -2 -2 -2 -2 -2 -2 -2 -3 -3 -4 -5 -5 -5 -5 -5 -4 -4 -4 -4 -4
1 0 -0 -1 -1 -1 -2 -2 -2 -2 -1 -1 -1 -1 -1 -1 -2 -2 -2 -3 -3 -4 -4 -5 -6 -6 -6 -6 -6 -5 -5 -5
0 -0 -1 -1 -1 -2 -2 -2 -2 -2 -2 -2 -2 -2 -2 -2 -2 -2 -2 -3 -3 -4 -5 -5 -6 -6 -6 -6 -7 -7 -7 -7
-1 -1 -1 -2 -3 -3 -3 -2 -2 -2 -2 -2 -2 -2 -2 -3 -2 -3 -3 -3 -4 -4 -5 -6 -6 -6 -6 -6 -6 -7 -8 -8
-2 -2 -3 -3 -2 -2 -2 -2 -2 -2 -2 -2 -3 -3 -3 -3 -3 -3 -4 -5 -5 -6 -6 -7 -6 -6 -6 -9 -8 -8 -8 -8
Height
3169 3169 3168 3167 3166 3164 3163 3161 3159 3158 3157 3157 3156 3156 3155 3154 3154 3154 3154 3154 3153 3152 3151 3150 3148 3147 3147 3145 3144 3143 3143 3144
3167 3167 3167 3166 3164 3163 3162 3160 3158 3157 3157 3156 3156 3155 3154 3153 3152 3151 3150 3149 3149 3148 3148 3147 3145 3144 3143 3142 3141 3141 3141 3140
3166 3166 3165 3164 3163 3161 3160 3159 3158 3157 3156 3156 3155 3154 3153 3152 3151 3150 3149 3148 3147 3146 3145 3144 3143 3142 3141 3139 3137 3137 3137 3137
3164 3164 3162 3161 3160 3159 3158 3158 3157 3156 3155 3154 3153 3152 3150 3149 3148 3147 3146 3145 3144 3143 3142 3141 3140 3139 3138 3136 3134 3133 3133 3133
3163 3161 3160 3159 3158 3157 3156 3156 3155 3154 3153 3151 3150 3149 3147 3146 3144 3143 3141 3140 3139 3139 3138 3137 3136 3134 3133 3132 3132 3131 3130 3129
3159 3159 3159 3158 3157 3156 3155 3154 3152 3151 3150 3149 3147 3145 3143 3142 3141 3140 3138 3137 3135 3134 3133 3132 3131 3130 3128 3127 3125 3125 3126 3126
3158 3159 3158 3156 3154 3153 3152 3151 3149 3147 3146 3144 3142 3140 3138 3137 3135 3133 3132 3130 3129 3128 3126 3125 3124 3124 3123 3122 3120 3118 3118 3118
3156 3156 3155 3154 3153 3152 3150 3147 3145 3144 3142 3139 3137 3135 3133 3130 3128 3127 3125 3123 3121 3120 3119 3118 3117 3116 3116 3116 3115 3113 3111 3110
3155 3155 3154 3153 3150 3148 3147 3145 3142 3140 3137 3135 3132 3130 3128 3125 3122 3120 3118 3116 3114 3113 3111 3110 3109 3108 3107 3106 3106 3106 3105 3104
3155 3155 3154 3152 3149 3146 3144 3141 3138 3136 3133 3130 3127 3124 3122 3119 3117 3114 3111 3109 3108 3106 3104 3103 3101 3100 3099 3098 3097 3097 3096 3095
3153 3153 3151 3149 3146 3144 3141 3138 3135 3132 3129 3126 3122 3119 3115 3113 3111 3108 3105 3103 3101 3099 3097 3095 3094 3093 3091 3090 3089 3088 3087 3086
3151 3150 3148 3146 3143 3140 3137 3134 3131 3128 3125 3121 3117 3113 3109 3106 3104 3101 3098 3097 3094 3092 3089 3087 3086 3085 3083 3083 3081 3080 3079 3077
3148 3147 3145 3142 3140 3136 3133 3130 3127 3125 3121 3117 3112 3108 3103 3099 3096 3093 3090 3088 3086 3084 3081 3080 3078 3076 3074 3074 3074 3072 3072 3071
3146 3144 3142 3139 3134 3130 3126 3123 3120 3118 3115 3112 3108 3102 3098 3093 3089 3086 3084 3080 3077 3075 3072 3070 3069 3068 3065 3064 3062 3064 3064 3063
3141 3139 3136 3131 3127 3122 3118 3114 3111 3108 3106 3102 3099 3094 3089 3084 3080 3077 3074 3070 3066 3064 3062 3059 3057 3056 3055 3053 3050 3049 3052 3052
3135 3132 3128 3124 3120 3117 3112 3108 3103 3101 3097 3092 3087 3083 3078 3074 3069 3065 3061 3058 3054 3052 3051 3047 3045 3043 3043 3041 3039 3038 3036 3038
3129 3125 3121 3118 3114 3109 3105 3101 3097 3092 3088 3081 3077 3073 3068 3063 3058 3053 3048 3045 3042 3040 3037 3034 3031 3030 3027 3026 3025 3025 3022 3023
3124 3120 3117 3112 3108 3103 3098 3093 3087 3081 3077 3070 3065 3060 3055 3052 3047 3042 3037 3033 3030 3026 3024 3021 3018 3015 3012 3010 3009 3009 3008 3007
3116 3112 3108 3103 3099 3094 3090 3085 3078 3071 3065 3058 3052 3047 3042 3037 3031 3027 3023 3019 3015 3012 3009 3007 3005 3001 3001 2997 2995 2996 2996 2994
3109 3104 3099 3096 3090 3084 3078 3072 3066 3060 3053 3047 3040 3033 3027 3020 3015 3009 3005 3001 2998 2996 2995 2995 2991 2990 2989 2987 2986 2986 2985 2984
Wind_Speed
6 6 6 8 9 10 11 12 11 10 5 3 5 3 2 3 6 8 11 12 13 13 12 14 16 17 20 22 22 22 22 21
9 5 4 6 8 9 9 8 8 6 3 5 8 7 7 6 5 5 5 6 8 9 9 9 10 10 10 14 20 22 23 21
5 5 2 5 8 10 6 7 5 6 6 8 9 10 11 10 9 8 9 10 10 11 12 11 11 12 13 15 14 20 22 20
4 3 7 11 13 14 9 8 9 9 8 8 8 10 11 11 12 13 13 14 15 15 15 16 16 17 17 16 15 15 18 21
2 9 11 13 13 13 12 12 12 12 13 14 14 14 15 15 15 16 17 17 18 19 19 19 20 20 21 21 18 17 18 19
11 14 16 16 15 15 15 15 17 18 18 20 19 19 19 20 20 21 22 22 23 23 23 24 24 24 25 25 26 24 22 22
10 12 17 19 20 20 18 18 19 21 22 22 21 21 22 23 24 25 25 26 26 27 28 28 28 29 29 29 29 30 30 28
11 14 18 19 20 19 19 19 20 22 23 25 26 27 27 28 28 29 29 29 29 29 29 29 30 31 31 31 32 32 33 34
11 13 17 20 20 20 20 21 22 23 23 24 25 27 28 29 30 31 30 31 31 31 31 31 31 31 32 32 33 32 33 36
10 13 16 17 18 17 20 19 20 22 24 25 26 28 29 30 31 32 32 31 31 31 31 31 32 32 32 32 32 32 32 34
12 15 17 17 21 22 21 20 19 24 25 26 27 28 29 30 31 32 34 35 35 35 34 34 33 32 32 32 32 32 33 35
15 19 20 22 26 27 25 25 25 27 30 29 29 29 30 31 31 31 31 32 32 34 35 36 34 33 32 33 33 33 33 35
18 23 25 24 31 29 27 24 27 27 31 31 31 31 31 32 32 33 33 33 32 32 33 34 34 34 35 34 33 33 33 35
16 19 20 25 28 28 27 27 27 27 32 31 35 33 34 35 36 35 37 38 38 38 38 39 39 37 37 36 37 35 33 34
16 17 24 27 29 30 31 31 35 36 37 38 43 36 37 40 41 41 40 42 43 42 42 43 44 43 42 39 42 40 36 37
22 25 27 28 29 31 33 36 40 41 44 48 47 44 41 41 43 46 45 45 46 44 43 46 47 49 49 50 46 45 49 44
24 27 29 31 33 34 35 38 42 47 51 50 48 44 44 45 47 50 51 50 50 48 46 48 52 55 56 53 53 51 55 51
26 28 30 33 35 36 38 44 49 51 46 47 49 49 48 47 47 49 52 52 52 53 52 53 55 59 61 60 58 59 59 61
29 31 33 33 33 37 44 47 44 46 47 49 48 49 50 51 51 52 53 55 55 53 51 52 56 62 64 66 61 60 59 57
30 32 33 36 40 42 43 44 47 49 48 48 48 50 51 51 52 52 50 47 45 43 42 47 60 56 62 45 44 42 47 47
Wind_Direction
314 306 298 314 319 321 310 312 312 295 284 253 305 308 303 270 268 274 278 283 285 287 283 281 277 272 267 265 263 259 256 254
306 305 300 307 327 336 340 351 15 15 1 336 345 350 352 349 328 307 297 289 286 295 299 287 277 290 286 283 264 259 259 257
289 297 335 347 348 343 332 346 356 359 8 355 349 343 341 340 336 326 314 307 307 306 307 309 301 297 298 298 299 266 261 261
284 325 358 350 346 346 331 322 337 343 338 332 326 321 316 315 313 310 306 303 298 293 290 289 290 291 292 296 296 291 279 270
7 18 0 351 347 347 334 321 325 327 324 320 312 303 298 297 294 291 290 288 286 283 280 279 280 284 287 289 288 285 281 277
28 21 8 357 351 343 332 320 316 316 314 314 309 299 292 288 286 283 282 281 280 279 279 278 276 275 276 279 281 281 274 270
41 19 7 2 357 346 336 326 318 315 313 313 308 302 296 289 284 282 280 278 277 276 276 274 274 273 273 273 273 276 279 278
23 8 -0 355 347 337 332 329 324 318 315 312 308 304 298 293 290 287 285 283 281 279 277 275 273 272 270 269 268 269 271 274
10 355 348 343 346 346 350 346 336 327 324 320 314 308 303 299 294 290 287 284 282 280 279 277 276 275 274 273 272 270 268 268
340 329 332 346 345 342 343 341 338 336 330 322 315 310 305 300 295 292 288 285 283 283 281 280 279 277 275 275 274 273 272 270
317 310 310 329 342 332 332 334 335 336 330 329 320 312 305 301 297 294 290 288 288 287 286 284 283 282 281 279 278 279 278 276
296 288 292 299 325 326 322 324 324 324 322 321 319 313 307 304 302 298 294 291 289 287 285 284 283 281 280 278 278 278 278 277
294 296 301 299 310 314 312 309 316 317 311 319 321 312 305 301 300 298 296 293 290 287 285 284 284 284 283 282 278 277 275 274
318 304 301 307 311 310 306 302 304 307 307 308 322 308 301 300 296 292 290 290 289 288 288 288 289 289 288 287 281 276 276 275
320 318 325 324 321 315 309 310 313 307 307 309 319 312 301 300 297 291 287 285 284 285 287 290 287 284 282 283 285 280 278 276
329 329 324 320 317 315 316 312 312 314 312 309 313 309 303 296 295 293 289 285 282 282 283 280 279 280 280 277 279 280 281 282
319 314 312 308 308 307 312 313 309 309 311 310 307 305 301 298 295 292 289 287 285 281 278 276 275 273 280 276 277 280 281 284
297 295 294 295 297 300 298 306 308 311 311 309 308 305 300 296 291 286 284 284 282 280 277 276 277 272 274 274 275 269 272 277
280 281 276 281 287 294 300 304 308 309 310 308 305 302 300 297 294 290 285 282 281 280 275 271 272 272 267 268 269 263 261 259
283 284 290 300 302 307 310 310 309 308 306 304 303 301 301 301 299 296 291 286 281 276 272 274 268 260 263 249 254 261 262 267